Home   Weather   Weinheim   Past weeks

Flag for Germany Past Weather in Weinheim, Baden-Württemberg, Germany — Yesterday and Last 2 Weeks

45 °F

Light rain. Passing clouds.

Feels Like: 43 °F
Forecast: 37 / 49 °F
Wind: 3 mph from North

Location: Mannheim City

Current Time: Oct 20, 2016 at 9:47:41 PM

Latest Report: Oct 20, 2016 at 8:50 PM

Visibility: 4 mi

Pressure: 29.89 "Hg

Humidity: 100%

Dew Point: 45 °F

Location of WeinheimLocation

Past Weather in Weinheim — Graph


Weinheim Temperature Yesterday

Maximum temperature yesterday: 55 °F (at 4:20 PM)
Minimum temperature yesterday: 46 °F (at 11:50 PM)
Average temperature yesterday: 51 °F

High & Low Weather Summary for the Past Weeks

High63 °F (Oct 15, 5:50 PM)100% (Oct 7, 5:50 AM)30.36 "Hg (Oct 7, 5:50 AM)
Low36 °F (Oct 9, 7:50 AM)51% (Oct 11, 2:20 PM)29.65 "Hg (Oct 14, 5:50 PM)
Average51 °F83%30.07 "Hg
* Reported Oct 5 8:20 PM — Oct 20 8:50 PM, Weinheim, Weather by CustomWeather, © 2016

Note: Actual official high and low records may vary slightly from our data, if they occured in-between our weather recording intervals... More about our weather records


Weinheim Weather History for the Previous 24 Hours

Scroll right to see more
Time TempWeatherWind HumidityBarometerVisibility
8:50 PM
Thu, Oct 20
45 °FLight rain. Passing clouds.3 mph100%29.89 "Hg4 mi
8:20 PM46 °FLight rain. Passing clouds.2 mph100%29.89 "Hg4 mi
7:50 PM46 °FLight rain. Passing clouds.3 mph100%29.89 "Hg5 mi
7:20 PM46 °FLight rain. Passing clouds.2 mph100%29.89 "HgN/A
6:50 PM46 °FLight rain. Overcast.2 mph100%29.92 "HgN/A
6:20 PM46 °FPartly sunny.2 mph100%29.92 "HgN/A
5:50 PM46 °FPartly sunny.1 mph100%29.92 "HgN/A
5:20 PM46 °FDrizzle. Partly sunny.5 mph100%29.92 "Hg6 mi
4:50 PM46 °FDrizzle. Partly sunny.3 mph100%29.92 "HgN/A
4:20 PM48 °FDrizzle. Partly sunny.5 mph100%29.92 "Hg6 mi
3:50 PM48 °FLight rain. Broken clouds.3 mph100%29.92 "Hg4 mi
3:20 PM46 °FRain. Broken clouds.7 mph100%29.89 "Hg3 mi
2:50 PM50 °FDrizzle. Partly sunny.6 mph100%29.92 "Hg5 mi
2:20 PM50 °FDrizzle. Broken clouds.5 mph100%29.92 "HgN/A
1:50 PM50 °FDrizzle. Partly sunny.7 mph100%29.92 "HgN/A
1:20 PM48 °FLight rain. Partly sunny.6 mph100%29.92 "HgN/A
12:50 PM48 °FBroken clouds.6 mph100%29.92 "HgN/A
12:20 PM48 °FLight rain. Broken clouds.8 mph100%29.92 "Hg5 mi
11:50 AM48 °FLight rain. Partly sunny.8 mph100%29.92 "Hg4 mi
11:20 AM46 °FLight rain. Partly sunny.7 mph100%29.92 "Hg4 mi
10:50 AM46 °FLight rain. Partly sunny.7 mph100%29.95 "Hg4 mi
10:20 AM46 °FLight rain. Partly sunny.6 mph100%29.95 "Hg4 mi
9:50 AM46 °FLight rain. Broken clouds.3 mph100%29.95 "Hg3 mi
9:20 AM46 °FLight rain. Broken clouds.3 mph100%29.95 "Hg4 mi
8:50 AM46 °FLight rain. Partly sunny.3 mph100%29.95 "Hg5 mi
8:20 AM46 °FBroken clouds.3 mph100%29.95 "HgN/A
7:50 AM46 °FPassing clouds.3 mph100%29.95 "HgN/A
7:20 AM45 °FPartly cloudy.3 mph100%29.95 "HgN/A
6:50 AM45 °FPartly cloudy.3 mph100%29.95 "HgN/A
6:20 AM45 °FPartly cloudy.3 mph100%29.95 "HgN/A
5:50 AM45 °FPartly cloudy.2 mph100%29.95 "HgN/A
1:20 AM46 °FOvercast.3 mph100%30.01 "Hg6 mi
12:50 AM46 °FMostly cloudy.3 mph100%30.01 "HgN/A
12:20 AM46 °FOvercast.3 mph100%30.01 "HgN/A
11:50 PM
Wed, Oct 19
46 °FPassing clouds.5 mph100%30.01 "HgN/A
Weather by CustomWeather, © 2016

See weather overviewHow to use our weather pages